Volver al catálogo

STARLINK-36038

ActivoComunicacionesVLEO
NORAD 66804·PAYLOAD·🇺🇸 United States

Lanzado Dec 1, 2025 desde Cape Canaveral Space Force Station

Loading…

Próximos Pases (próximas 24 horas)

TLE

ActualizadoSource: CelesTrak SupGP

Época: Sep 15, 2026, 02:34 UTC

1 66804C 25278P   26258.10743056  .00065051  00000+0  23557-2 0  2585
2 66804  42.9994 124.4621 0001493 272.2812 323.0217 15.27551871    15

Sigue STARLINK-36038 en tiempo real con AllMySat

Download on the App Store